Location: Demre
(36.2444°N, 29.9850°E)
Time: 04:28:50
(UTC+00:00)

COSMO-SKYMED 1 - Pass Details

Date: 11 March 2026
Orbit: 576 x 577 km, 97.9° (Epoch: 21 April)

Event Time Altitude Azimuth Distance (km) Brightness Sun altitude
Rises 16:38:32 0° 8° (N) 2,799 5.9 -7.8°
Reaches altitude 10° 16:40:42 10° 5° (N) 1,895 5.0 -8.3°
Maximum altitude 16:44:46 63° 285° (WNW) 644 3.0 -9.1°
Drops below altitude 10° 16:48:48 10° 204° (SSW) 1,880 5.3 -9.9°
Sets 16:50:57 0° 201° (SSW) 2,774 6.1 -10.3°
